Stations météo

réclame
Mon MeteoGroup
Arezzo, Italie (16172): Température de l'air & dewpoint: 11.10.2017 11:00:00 - 17.10.2017 11:00:00 (CEST)Arezzo, Italie (16172): Vitesse du vent: 11.10.2017 11:00:00 - 17.10.2017 11:00:00 (CEST)Arezzo, Italie (16172): Direction du vent: 11.10.2017 11:00:00 - 17.10.2017 11:00:00 (CEST)Arezzo, Italie (16172): reduced air pressure: 11.10.2017 11:00:00 - 17.10.2017 11:00:00 (CEST)Arezzo, Italie (16172): visibility: 11.10.2017 11:00:00 - 17.10.2017 11:00:00 (CEST)
Date & Time tt [°C] td [°C] ff [km/h] ff [knt] dd ppp [hPa] vv [km]
17.10.2017 11:00:00 14,4 8,4 0 0 N 1027,5 16
17.10.2017 10:00:00 - - - - - - -
17.10.2017 09:00:00 - - - - - - -
17.10.2017 08:00:00 4,8 4,4 0 0 N 1028,1 12
17.10.2017 07:00:00 - - - - - - -
17.10.2017 06:00:00 - - - - - - -
17.10.2017 05:00:00 5,8 5,5 0 0 N 1028,2 12
17.10.2017 04:00:00 - - - - - - -
17.10.2017 03:00:00 - - - - - - -
17.10.2017 02:00:00 6,4 6,1 0 0 N 1029,0 12
17.10.2017 01:00:00 - - - - - - -
17.10.2017 00:00:00 - - - - - - -
16.10.2017 23:00:00 8,4 7,5 0 0 N 1028,6 12
16.10.2017 22:00:00 - - - - - - -
16.10.2017 21:00:00 - - - - - - -
16.10.2017 20:00:00 12,8 9,1 4 2 S 1027,6 14
16.10.2017 19:00:00 - - - - - - -
16.10.2017 18:00:00 - - - - - - -
16.10.2017 17:00:00 23,2 6,0 4 2 ESE 1026,8 20
16.10.2017 16:00:00 - - - - - - -
16.10.2017 15:00:00 - - - - - - -
16.10.2017 14:00:00 22,8 7,0 4 2 SSW 1028,0 20
16.10.2017 13:00:00 - - - - - - -
16.10.2017 12:00:00 - - - - - - -
16.10.2017 11:00:00 15,6 8,8 0 0 N 1028,9 20
16.10.2017 10:00:00 - - - - - - -
16.10.2017 09:00:00 - - - - - - -
16.10.2017 08:00:00 4,0 3,7 0 0 N 1030,0 11
16.10.2017 07:00:00 - - - - - - -
16.10.2017 06:00:00 - - - - - - -
16.10.2017 05:00:00 5,4 5,2 0 0 N 1029,8 8
16.10.2017 04:00:00 - - - - - - -
16.10.2017 03:00:00 - - - - - - -
16.10.2017 02:00:00 6,8 6,2 0 0 N 1029,6 10
16.10.2017 01:00:00 - - - - - - -
16.10.2017 00:00:00 - - - - - - -
15.10.2017 23:00:00 9,8 9,0 0 0 N 1029,2 11
15.10.2017 22:00:00 - - - - - - -
15.10.2017 21:00:00 - - - - - - -
15.10.2017 20:00:00 15,0 10,8 4 2 ESE 1028,0 16
15.10.2017 19:00:00 - - - - - - -
15.10.2017 18:00:00 - - - - - - -
15.10.2017 17:00:00 24,2 4,6 0 0 N 1026,8 15
15.10.2017 16:00:00 - - - - - - -
15.10.2017 15:00:00 - - - - - - -
15.10.2017 14:00:00 22,2 8,0 0 0 N 1028,3 15
15.10.2017 13:00:00 - - - - - - -
15.10.2017 12:00:00 - - - - - - -
15.10.2017 11:00:00 14,4 8,6 0 0 N 1030,0 14
15.10.2017 10:00:00 - - - - - - -
15.10.2017 09:00:00 - - - - - - -
15.10.2017 08:00:00 6,0 5,6 0 0 N 1030,1 15
15.10.2017 07:00:00 - - - - - - -
15.10.2017 06:00:00 - - - - - - -
15.10.2017 05:00:00 7,0 6,5 0 0 N 1029,7 6
15.10.2017 04:00:00 - - - - - - -
15.10.2017 03:00:00 - - - - - - -
15.10.2017 02:00:00 9,0 8,6 0 0 N 1029,5 8
15.10.2017 01:00:00 - - - - - - -
15.10.2017 00:00:00 - - - - - - -
14.10.2017 23:00:00 11,8 11,0 0 0 N 1029,1 12
14.10.2017 22:00:00 - - - - - - -
14.10.2017 21:00:00 - - - - - - -
14.10.2017 20:00:00 15,2 11,8 0 0 N 1027,8 13
14.10.2017 19:00:00 - - - - - - -
14.10.2017 18:00:00 - - - - - - -
14.10.2017 17:00:00 22,8 7,8 5 3 NNW 1026,6 16
14.10.2017 16:00:00 - - - - - - -
14.10.2017 15:00:00 - - - - - - -
14.10.2017 14:00:00 21,2 7,8 4 2 N 1027,4 15
14.10.2017 13:00:00 - - - - - - -
14.10.2017 12:00:00 - - - - - - -
14.10.2017 11:00:00 14,2 9,0 0 0 N 1028,7 12
14.10.2017 10:00:00 - - - - - - -
14.10.2017 09:00:00 - - - - - - -
14.10.2017 08:00:00 6,2 5,5 0 0 N 1028,8 5
14.10.2017 07:00:00 - - - - - - -
14.10.2017 06:00:00 - - - - - - -
14.10.2017 05:00:00 6,0 5,4 0 0 N 1028,7 1,5
14.10.2017 04:00:00 - - - - - - -
14.10.2017 03:00:00 - - - - - - -
14.10.2017 02:00:00 8,2 7,6 0 0 N 1028,3 3,0
14.10.2017 01:00:00 - - - - - - -
14.10.2017 00:00:00 - - - - - - -
13.10.2017 23:00:00 11,0 10,2 0 0 N 1027,6 10
13.10.2017 22:00:00 - - - - - - -
13.10.2017 21:00:00 - - - - - - -
13.10.2017 20:00:00 15,4 13,3 4 2 E 1026,6 15
13.10.2017 19:00:00 - - - - - - -
13.10.2017 18:00:00 - - - - - - -
13.10.2017 17:00:00 21,2 12,9 8 4 WNW 1025,6 20
13.10.2017 16:00:00 - - - - - - -
13.10.2017 15:00:00 - - - - - - -
13.10.2017 14:00:00 19,0 13,0 4 2 N 1027,3 20
13.10.2017 13:00:00 - - - - - - -
13.10.2017 12:00:00 - - - - - - -
13.10.2017 11:00:00 14,0 10,6 4 2 W 1028,3 20
13.10.2017 10:00:00 - - - - - - -
13.10.2017 09:00:00 - - - - - - -
13.10.2017 08:00:00 6,4 5,4 0 0 N 1028,3 7
13.10.2017 07:00:00 - - - - - - -
13.10.2017 06:00:00 - - - - - - -
13.10.2017 05:00:00 7,0 6,1 0 0 N 1028,1 3,0
13.10.2017 04:00:00 - - - - - - -
13.10.2017 03:00:00 - - - - - - -
13.10.2017 02:00:00 8,0 6,9 0 0 N 1028,0 12
13.10.2017 01:00:00 - - - - - - -
13.10.2017 00:00:00 - - - - - - -
12.10.2017 23:00:00 11,2 10,0 0 0 N 1027,4 14
12.10.2017 22:00:00 - - - - - - -
12.10.2017 21:00:00 - - - - - - -
12.10.2017 20:00:00 14,2 11,9 4 2 ESE 1026,6 14
12.10.2017 19:00:00 - - - - - - -
12.10.2017 18:00:00 - - - - - - -
12.10.2017 17:00:00 19,0 12,5 4 2 N 1025,8 20
12.10.2017 16:00:00 - - - - - - -
12.10.2017 15:00:00 - - - - - - -
12.10.2017 14:00:00 18,8 11,6 5 3 WSW 1026,1 18
12.10.2017 13:00:00 - - - - - - -
12.10.2017 12:00:00 - - - - - - -
12.10.2017 11:00:00 15,8 11,0 0 0 N 1025,8 16
12.10.2017 10:00:00 - - - - - - -
12.10.2017 09:00:00 - - - - - - -
12.10.2017 08:00:00 7,8 6,3 4 2 SE 1026,1 13
12.10.2017 07:00:00 - - - - - - -
12.10.2017 06:00:00 - - - - - - -
12.10.2017 05:00:00 7,8 6,7 0 0 N 1025,7 12
12.10.2017 04:00:00 - - - - - - -
12.10.2017 03:00:00 - - - - - - -
12.10.2017 02:00:00 8,6 7,5 0 0 N 1025,5 12
12.10.2017 01:00:00 - - - - - - -
12.10.2017 00:00:00 - - - - - - -
11.10.2017 23:00:00 11,4 9,7 0 0 N 1024,9 14
11.10.2017 22:00:00 - - - - - - -
11.10.2017 21:00:00 - - - - - - -
11.10.2017 20:00:00 15,6 12,0 4 2 E 1023,1 16
11.10.2017 19:00:00 - - - - - - -
11.10.2017 18:00:00 - - - - - - -
11.10.2017 17:00:00 20,2 9,2 5 3 WNW 1022,4 20
11.10.2017 16:00:00 - - - - - - -
11.10.2017 15:00:00 - - - - - - -
11.10.2017 14:00:00 20,4 8,7 4 2 NE 1023,2 20
11.10.2017 13:00:00 - - - - - - -
11.10.2017 12:00:00 - - - - - - -
11.10.2017 11:00:00 15,2 8,9 4 2 WNW 1024,0 20

tt = Température de l'air
td = dewpoint
ff = Vitesse du vent
dd = Direction du vent
ppp = reduced air pressure
vv = visibility

stations d'obs. à proximité